Northolt, United Kingdom

12:28 AM GMT on December 18, 2017 (GMT +0000)
Northolt Air Base

Weather History for EGWU - September, 2012

Change the Weather History Date:

Monday, September 24, 2012

  Actual Average Record
Temperature  
Mean Temperature 54 °F -  
Max Temperature 59 °F 60 °F 73 °F (2006)
Min Temperature 50 °F 47 °F 35 °F (2003)
Degree Days  
Heating Degree Days 10    
Growing Degree Days 4 (Base 50)    
Moisture  
Dew Point 51 °F    
Average Humidity 85    
Maximum Humidity 100    
Minimum Humidity 55    
Precipitation  
Precipitation 0.39 in - - ()
Sea Level Pressure  
Sea Level Pressure 29.20 in    
Wind  
Wind Speed 10 mph ()    
Max Wind Speed 22 mph    
Max Gust Speed 36 mph    
Visibility 4.7 miles    
Events Rain    
Averages and records for this station are not official NWS values.
T = Trace of Precipitation, MM = Missing Value Source: Averaged Metar Reports

Daily Weather History Graph

Daily Weather History Graph

Search for Another Location

Airport or City:

Trip Planner

Search our weather history database for the weather conditions in past years. The results will help you decide how hot, cold, wet, or windy it might be!

Date:

Astronomy

Sep. 24, 2012 Rise Set
Actual Time 6:51 AM BST 6:54 PM BST
Civil Twilight 6:18 AM BST 7:27 PM BST
Nautical Twilight 5:38 AM BST 8:07 PM BST
Astronomical Twilight 4:57 AM BST 8:47 PM BST
Moon 4:02 PM BST (9/24) 12:15 AM BST (9/24)
Length of Visible Light 13h 09m
Length of Day
12h 03m
Waxing Gibbous, 68% of the Moon is Illuminated
Sep 24
Waxing Gibbous
Sep 30
Full
Oct 8
Last Quarter
Oct 15
New
Oct 22
First Quarter

Hourly Weather History & Observations

Time (BST) Temp. Dew Point Humidity Pressure Visibility Wind Dir Wind Speed Gust Speed Precip Events Conditions
12:50 AM 53 °F 52 °F 93% 29.39 in 4 mi East 6.9 mph - -   Overcast
12:50 AM 53.6 °F 51.8 °F 94% 29.36 in 4.3 mi East 6.9 mph - N/A   Overcast
1:50 AM 53.6 °F 51.8 °F 94% 29.33 in 3.1 mi East 8.1 mph - N/A   Overcast
2:50 AM 53.6 °F 51.8 °F 94% 29.30 in - East 8.1 mph - N/A   Mostly Cloudy
3:50 AM 54 °F 52 °F 92% 29.27 in 3 mi East 6.9 mph - -   Overcast
3:50 AM 53.6 °F 51.8 °F 94% 29.27 in - East 6.9 mph - N/A   Overcast
4:50 AM 53.6 °F 53.6 °F 100% 29.21 in - East 9.2 mph - N/A   Mostly Cloudy
5:50 AM 55.4 °F 53.6 °F 94% 29.18 in 2.2 mi East 10.4 mph - N/A Rain Light Rain
6:50 AM 55 °F 54 °F 95% 29.16 in 2 mi East 9.2 mph - - Rain Light Drizzle
6:50 AM 55.4 °F 53.6 °F 94% 29.15 in 1.6 mi East 9.2 mph - N/A   Light Drizzle
7:50 AM 55.4 °F 55.4 °F 100% 29.12 in 1.6 mi East 10.4 mph - N/A Rain Light Rain
8:50 AM 57.2 °F 55.4 °F 94% 29.09 in - East 9.2 mph - N/A Rain Light Rain
9:50 AM 59 °F 58 °F 96% 29.10 in 3 mi ESE 9.2 mph - - Rain Light Rain
9:50 AM 59.0 °F 59.0 °F 100% 29.09 in 3.1 mi ESE 9.2 mph - N/A   Overcast
10:50 AM 59.0 °F 59.0 °F 100% 29.06 in 1.9 mi ESE 9.2 mph - N/A Rain Heavy Rain
11:50 AM 53.6 °F 51.8 °F 94% 29.12 in 6.2 mi WSW 21.9 mph 33.4 mph N/A Rain Rain
12:50 PM 53 °F 51 °F 88% 29.16 in 9 mi West 20.7 mph - - Rain Rain
12:50 PM 53.6 °F 50.0 °F 88% 29.15 in 6.2 mi West 20.7 mph - N/A Rain Rain
1:50 PM 53.6 °F 50.0 °F 88% 29.18 in 6.2 mi West 18.4 mph - N/A   Mostly Cloudy
2:50 PM 55.4 °F 50.0 °F 82% 29.21 in 6.2 mi WSW 21.9 mph 35.7 mph N/A Rain Light Rain
3:50 PM 57 °F 48 °F 64% 29.22 in 25 mi WSW 21.9 mph - - Rain Light Rain
3:50 PM 57.2 °F 48.2 °F 72% 29.21 in 6.2 mi WSW 21.9 mph - N/A   Mostly Cloudy
4:50 PM 59.0 °F 46.4 °F 63% 29.21 in 6.2 mi WSW 20.7 mph 34.5 mph N/A   Mostly Cloudy
5:50 PM 59.0 °F 44.6 °F 59% 29.21 in 6.2 mi WSW 19.6 mph 32.2 mph N/A   Mostly Cloudy
6:50 PM 57 °F 45 °F 55% 29.23 in 31 mi WSW 15.0 mph - -   Partly Cloudy
6:50 PM 57.2 °F 44.6 °F 63% 29.21 in 6.2 mi WSW 15.0 mph - N/A   Scattered Clouds
7:50 PM 55.4 °F 44.6 °F 67% 29.24 in 6.2 mi SW 10.4 mph - N/A   Partly Cloudy
8:50 PM 53.6 °F 46.4 °F 77% 29.21 in 6.2 mi SW 10.4 mph - N/A   Partly Cloudy
9:50 PM 52 °F 47 °F 77% 29.22 in 31 mi SW 10.4 mph - -   Clear
9:50 PM 51.8 °F 46.4 °F 82% 29.21 in - SW 10.4 mph - N/A   Clear
10:50 PM 51.8 °F 46.4 °F 82% 29.21 in - SW 10.4 mph - N/A   Clear
11:50 PM 51.8 °F 44.6 °F 76% 29.21 in 6.2 mi SW 11.5 mph - N/A   Partly Cloudy